Location: Arbon
(43.0005°N, 0.7472°E)
Time: 00:51:38
(UTC+00:00)

NOSS 3-1 (C) - Pass Details

Date: 07 August 2020
Orbit: 744 x 1464 km, 63.4° (Epoch: 17 September)

Event Time Altitude Azimuth Distance (km) Brightness Sun altitude
Exits shadow 02:17:31 35° 158° (SSE) 1,283 3.9 -23.1°
Maximum altitude 02:19:05 45° 116° (ESE) 1,136 3.9 -22.9°
Drops below altitude 10° 02:24:47 10° 46° (NE) 2,651 6.9 -22.3°
Sets 02:27:38 0° 41° (NE) 3,713 8.1 -22.0°
